Theta_e
313 313 314 315 315 314 315 315 313 313 312 324 324 322 324 326 324 322 323 325 326 322 324 327 323 319 321 319 318 322 329 331 330 330 329 324 325 324 324 327 328 329 333 335 335
312 313 313 314 315 315 315 315 316 312 312 316 321 323 322 326 323 323 324 324 323 323 327 325 321 319 320 320 321 321 332 331 328 326 324 324 324 324 325 327 330 331 336 335 335
311 312 313 313 314 314 315 314 314 314 312 312 313 324 322 324 324 324 324 323 323 321 322 327 325 320 321 320 321 324 333 330 323 318 317 323 324 323 324 327 327 330 337 334 335
311 311 312 313 313 314 314 314 313 313 311 311 312 323 322 323 329 324 324 322 322 321 320 326 329 327 329 327 323 330 325 318 319 316 317 319 322 323 323 322 320 327 334 332 333
310 310 311 310 312 313 313 314 314 312 312 310 314 324 323 323 324 319 323 323 320 319 321 326 333 329 330 328 327 330 324 315 318 318 316 316 318 322 321 320 320 332 332 332 332
309 310 310 309 309 311 311 313 313 313 312 311 312 317 322 325 321 317 321 322 319 320 322 325 331 326 329 329 328 328 325 318 318 317 314 317 318 317 318 318 320 332 333 332 333
308 308 308 309 309 311 311 312 311 313 313 311 312 318 323 322 321 319 321 321 319 319 321 324 328 329 327 326 323 328 326 323 321 318 314 313 317 316 316 318 320 331 331 333 333
308 307 307 308 307 309 311 311 311 312 314 312 315 323 323 321 321 320 318 319 318 319 321 324 324 325 325 322 323 325 324 327 323 315 314 314 329 321 316 318 320 323 327 332 333
306 307 309 310 309 309 312 312 311 314 314 312 313 319 322 319 318 318 318 319 322 322 322 322 323 325 323 326 329 326 329 324 324 320 315 314 324 322 315 317 318 319 322 328 330
309 310 310 310 310 312 313 313 312 313 313 315 314 319 314 319 318 317 320 322 322 322 323 324 324 327 328 329 338 332 333 326 328 320 318 317 319 316 313 315 317 317 320 324 327
308 308 306 307 309 308 310 313 315 316 314 316 322 320 315 317 318 319 321 322 322 323 326 324 329 331 330 328 332 329 333 332 330 322 321 320 322 321 321 315 314 315 315 320 326
307 308 305 305 306 307 309 313 312 314 314 312 318 319 316 318 320 320 322 324 325 326 320 323 328 328 328 328 332 333 333 335 327 323 325 327 326 323 323 324 319 316 315 315 320
307 308 307 306 307 306 309 312 312 313 318 320 318 319 317 320 320 320 322 321 324 325 325 329 328 327 330 332 334 335 334 334 331 319 318 320 325 324 324 324 323 322 317 315 314
307 306 307 307 306 306 307 308 310 313 315 319 320 319 318 319 320 318 320 321 321 323 324 326 326 329 331 334 333 336 325 326 321 325 330 322 332 329 327 324 324 324 320 316 313
304 305 306 307 308 309 308 309 310 313 321 318 319 315 319 320 320 320 319 316 323 321 321 324 323 331 333 333 331 327 318 316 317 316 321 318 321 323 322 327 325 323 322 319 315
304 303 304 306 306 307 307 308 313 318 322 313 314 318 322 320 321 321 320 314 318 321 318 318 322 327 328 320 320 314 316 316 314 318 326 325 321 323 324 322 322 322 322 321 318
305 302 304 305 306 307 307 301 317 321 307 308 316 319 321 321 322 322 318 318 320 321 321 319 326 316 319 320 318 318 324 326 328 326 329 317 323 324 322 320 318 318 317 317 317
303 301 304 304 304 304 298 303 315 316 313 310 317 319 321 319 318 320 319 320 318 319 319 320 321 320 319 320 319 319 324 325 328 326 323 310 320 320 316 313 310 310 314 312 309
302 303 303 303 304 303 299 308 313 314 310 314 318 320 315 319 315 319 320 319 318 319 322 322 319 314 320 317 317 319 326 316 313 306 315 315 315 315 314 313 311 309 313 311 311
303 303 303 303 303 300 303 309 310 311 311 315 321 320 318 317 319 320 320 318 318 318 317 318 318 314 318 317 317 320 317 322 319 319 319 319 318 316 313 312 312 310 310 310 310
303 304 303 302 301 300 306 309 308 308 312 318 319 319 318 316 319 320 320 318 317 318 317 316 315 314 315 318 318 316 320 319 320 321 322 322 320 312 313 310 311 310 310 309 308
303 304 302 303 302 302 307 309 307 310 313 316 316 317 317 316 319 320 320 319 317 318 318 314 314 315 315 310 315 316 319 319 322 321 319 318 317 308 308 308 308 308 308 308 308
303 301 301 302 304 303 306 308 308 309 314 317 316 316 316 319 320 319 319 318 317 317 314 312 313 316 316 313 310 316 317 318 316 314 317 318 318 309 309 310 308 307 309 307 308
303 303 300 301 302 304 306 307 310 308 314 316 316 315 318 320 318 319 318 318 317 316 313 312 313 314 317 315 311 314 317 317 318 315 316 316 318 315 310 309 308 308 308 307 306
303 304 301 304 303 304 304 307 311 311 311 315 316 317 318 321 320 320 318 318 315 314 311 311 312 313 312 312 312 314 316 316 318 318 318 317 316 315 311 309 308 308 310 309 308
302 303 301 302 303 304 305 307 309 307 311 316 316 318 318 319 318 320 319 318 316 311 310 310 310 311 309 311 312 313 314 315 315 317 316 315 314 313 311 311 310 310 310 309 309
299 300 303 304 304 305 305 305 309 310 310 312 314 317 318 316 314 314 315 313 314 314 313 311 312 311 312 309 309 309 311 313 314 313 315 316 314 312 310 309 309 309 308 307 308
Wind_Speed
20 21 22 24 25 24 20 24 30 28 24 21 25 29 27 23 19 16 13 13 22 8 9 9 6 6 6 1 7 6 4 7 12 7 1 7 4 2 3 6 2 4 5 16 28
23 22 22 24 26 26 24 22 24 38 32 28 21 30 29 26 19 23 22 22 13 16 12 12 7 8 4 5 2 3 3 8 5 5 4 8 6 7 4 8 4 7 16 25 26
27 24 22 23 26 27 27 25 24 30 36 32 28 29 31 25 15 11 28 22 23 18 15 16 15 8 2 2 5 1 10 6 2 7 7 1 3 7 5 7 8 12 13 16 20
27 25 23 22 26 27 29 26 24 25 33 35 30 32 32 24 13 21 29 28 25 20 16 16 11 12 8 7 4 4 2 5 2 3 3 2 3 4 6 2 4 15 20 20 16
26 25 24 25 26 30 31 29 26 28 29 30 33 30 33 10 21 6 34 38 28 23 21 15 13 12 10 9 8 6 3 1 5 2 4 4 4 5 8 5 6 21 21 17 19
26 25 27 27 28 30 34 32 29 28 34 38 33 27 28 28 25 8 28 35 26 25 23 20 9 10 5 4 11 10 8 5 1 3 2 2 5 3 7 5 8 15 14 14 19
27 28 29 29 31 30 34 37 33 32 32 37 37 38 20 27 33 11 27 32 29 30 17 21 12 13 4 4 2 3 7 2 5 4 3 2 4 6 9 7 9 12 12 13 17
28 29 29 29 31 31 36 40 36 32 32 37 35 33 11 38 28 25 26 25 24 22 15 10 5 4 2 5 5 8 3 4 6 7 4 4 11 10 10 8 9 10 10 13 15
27 27 25 24 26 30 36 39 34 33 30 38 28 26 9 33 29 29 33 28 21 15 10 13 7 3 0 8 4 5 4 6 7 15 5 7 4 5 2 6 8 9 10 11 11
21 20 21 22 22 24 29 23 31 34 32 19 40 15 3 25 33 34 32 32 16 18 6 4 3 4 3 10 10 10 5 10 8 9 6 6 9 5 8 8 8 8 10 10 10
25 20 16 14 21 23 21 19 6 10 12 15 13 12 14 32 34 29 35 28 13 9 10 5 5 14 18 14 5 16 12 9 12 9 6 13 12 12 9 8 8 8 7 9 12
26 25 20 15 18 16 23 8 19 3 8 23 23 17 23 38 21 24 42 11 16 15 11 5 15 12 13 15 13 9 14 10 8 6 4 7 14 13 12 11 10 10 9 9 8
23 22 21 17 13 14 16 19 22 21 4 16 25 20 21 25 28 32 31 13 18 16 17 14 6 11 12 14 13 15 13 9 5 5 3 4 7 9 8 13 12 11 9 10 10
22 21 20 18 6 11 12 25 16 22 6 9 16 8 11 17 18 32 33 12 6 12 14 6 8 19 15 15 9 5 1 7 11 7 2 6 5 7 14 19 18 17 13 13 11
19 17 20 26 9 9 7 15 21 14 7 15 13 19 17 17 23 25 37 4 18 13 8 8 15 17 18 16 11 2 9 9 7 5 3 5 2 5 2 12 18 18 16 14 13
19 17 17 16 11 7 11 11 10 10 8 8 9 14 22 10 28 29 17 3 7 15 3 8 8 10 6 6 9 13 13 11 6 3 3 7 6 5 5 5 4 7 16 18 13
18 17 18 8 1 5 3 5 7 10 7 6 13 23 24 16 18 30 20 14 13 12 12 9 13 5 14 14 11 2 9 3 2 2 5 1 6 12 7 8 1 6 6 7 12
16 15 17 12 9 4 11 1 8 12 6 5 19 27 20 22 12 25 26 17 11 10 13 8 4 9 15 10 11 16 2 5 7 5 2 2 7 5 6 6 5 7 7 2 6
17 15 8 10 6 11 3 3 5 5 11 17 25 28 6 15 9 20 26 29 14 19 13 12 4 13 18 8 15 6 4 3 6 2 3 5 5 7 12 7 6 6 1 2 3
13 11 6 13 18 11 2 5 5 7 14 25 23 22 14 14 14 15 25 26 17 18 7 8 8 3 11 10 2 7 8 4 1 5 4 5 4 5 4 6 6 6 8 7 6
11 3 8 23 11 4 3 4 6 10 15 25 21 21 20 20 18 21 28 20 22 25 8 14 6 3 5 6 11 5 6 4 5 4 4 0 4 3 7 5 3 7 5 5 5
4 4 16 19 3 2 4 5 4 7 19 15 12 15 31 31 21 20 26 13 25 22 18 4 6 7 7 2 4 4 8 4 4 4 3 3 5 5 7 6 5 6 5 5 6
3 2 6 2 4 5 4 6 5 5 20 12 13 6 25 18 13 14 21 11 24 21 20 10 5 8 4 5 3 9 11 13 4 3 6 5 5 7 8 5 5 8 5 5 5
4 3 0 2 2 4 5 8 7 9 16 13 21 19 25 21 10 18 17 20 25 25 10 7 5 6 12 6 11 8 11 12 5 3 3 8 5 4 6 7 6 5 5 7 6
1 2 2 5 4 5 5 5 5 6 5 16 20 27 34 15 15 10 23 12 21 15 8 6 5 6 7 12 15 24 26 18 19 21 12 19 13 10 7 9 8 7 2 4 6
3 2 2 1 3 12 7 3 4 3 6 13 22 29 28 20 14 26 32 20 23 9 12 4 4 5 5 9 12 15 17 23 27 24 20 13 15 4 9 6 1 2 1 4 5
1 1 2 6 4 4 4 4 6 5 8 7 12 23 26 19 17 15 18 11 23 27 18 11 6 5 2 6 8 1 25 25 22 18 25 15 18 4 6 6 5 5 6 8 5
Wind_Direction
234 234 233 231 232 236 236 230 233 231 245 238 230 230 225 209 203 192 196 214 216 233 199 185 175 132 122 21 328 319 249 232 244 244 170 136 140 303 23 109 76 49 22 129 159
233 233 232 231 230 229 234 234 236 227 241 247 251 229 224 213 199 212 206 217 200 208 184 179 165 136 145 147 304 269 250 229 296 313 5 146 194 144 152 137 125 93 91 123 153
231 231 233 231 231 232 231 233 231 230 232 242 260 227 220 206 213 223 205 210 207 206 205 203 176 137 212 88 184 222 244 304 27 8 17 30 209 140 203 175 191 162 140 150 161
228 227 231 233 230 228 229 230 236 234 225 238 257 227 210 186 233 199 198 199 204 200 202 208 216 181 189 185 186 216 287 324 62 31 293 309 314 184 207 75 335 155 146 165 173
229 231 232 235 234 228 230 227 228 233 219 230 235 211 191 208 221 162 197 197 194 182 199 204 200 197 202 182 153 224 166 253 351 348 278 29 286 237 214 163 45 125 141 172 181
229 231 236 239 238 232 227 227 229 232 215 226 242 245 194 218 208 187 189 188 181 180 197 204 193 196 256 227 176 206 169 171 217 326 323 255 227 87 252 157 136 137 156 172 189
232 238 239 237 238 233 228 225 231 226 222 223 241 230 207 212 199 170 179 179 179 182 190 203 211 188 184 151 163 168 164 150 210 224 222 244 258 206 261 155 166 156 168 175 190
233 239 241 234 236 233 231 223 228 221 217 219 220 200 225 202 202 199 173 167 177 190 205 179 123 108 303 143 155 168 165 172 208 173 219 145 242 227 216 173 184 185 180 177 187
234 237 236 231 230 232 225 219 220 212 215 219 222 234 191 184 221 173 168 161 130 125 106 119 104 110 206 149 150 210 177 190 150 196 147 178 229 210 42 179 212 196 199 177 180
223 217 219 217 214 223 218 223 219 217 220 227 226 185 197 178 192 163 172 148 133 118 80 92 98 170 186 174 188 156 192 211 205 182 185 190 247 169 185 188 225 246 198 176 184
212 213 206 200 214 221 219 198 194 204 206 224 193 160 150 175 160 164 160 144 136 150 165 178 190 202 189 191 171 175 190 184 200 175 154 219 235 235 228 175 203 233 258 195 184
215 220 208 208 211 221 219 210 212 117 191 235 202 164 159 178 158 162 145 159 156 173 126 139 217 192 186 197 215 224 188 204 89 146 178 224 240 236 230 237 210 201 215 245 196
200 199 201 199 196 209 254 223 218 209 283 194 173 159 165 177 165 165 155 154 172 164 177 193 183 187 178 200 216 209 204 190 131 146 270 338 270 245 242 222 233 230 192 205 211
191 197 197 181 171 217 239 241 224 170 246 187 166 159 167 175 174 162 160 136 159 169 173 212 170 175 188 205 184 193 6 92 119 154 223 169 287 226 220 222 219 223 214 205 209
183 182 188 183 167 172 200 209 219 158 226 177 156 146 154 179 142 170 169 109 159 158 155 165 172 176 183 193 188 181 100 97 95 86 4 182 276 253 301 212 220 218 225 221 212
183 188 194 199 244 224 210 241 235 194 220 188 142 157 163 157 164 156 169 120 138 142 140 158 165 171 161 94 113 150 99 72 62 78 260 196 183 260 226 221 228 198 215 218 212
187 200 195 198 246 151 241 24 216 221 145 192 148 152 167 158 180 162 163 165 159 140 171 126 171 116 137 99 138 308 158 88 104 179 226 109 211 245 277 282 295 289 276 239 205
189 202 200 205 220 195 50 69 250 170 165 181 160 156 176 158 207 162 162 169 163 163 127 147 200 176 175 164 167 188 239 144 181 184 188 312 234 242 254 259 253 265 238 333 356
183 192 195 219 201 109 101 228 290 175 138 153 152 161 126 152 137 169 173 175 174 178 159 165 119 169 182 129 146 184 187 78 107 39 67 203 262 289 264 272 248 257 238 244 321
166 163 152 160 152 96 219 238 271 227 159 159 161 168 155 155 153 177 182 181 170 197 136 142 112 198 174 129 233 166 141 92 305 137 227 242 240 228 231 247 233 209 223 203 223
154 164 136 147 119 78 258 253 261 254 185 169 162 163 166 156 156 174 190 176 180 186 147 133 109 160 119 207 174 151 177 187 143 172 170 253 256 229 189 163 134 155 126 124 94
152 170 164 151 118 128 247 216 251 251 215 205 167 161 163 164 170 172 186 184 177 176 165 111 110 148 179 36 188 233 166 166 164 224 220 132 270 183 158 168 139 126 128 117 102
113 68 159 234 148 198 240 274 244 268 212 177 152 177 160 157 151 187 182 171 177 176 161 159 139 116 164 341 228 209 190 193 106 87 203 150 246 195 139 164 170 158 91 138 155
143 157 150 259 251 167 250 258 218 227 234 191 166 139 154 162 135 178 160 169 175 178 136 105 153 149 187 144 120 172 192 198 206 152 156 231 215 159 166 177 154 166 161 161 190
154 166 152 179 214 196 231 304 202 221 251 207 162 159 165 154 144 154 155 178 169 159 152 125 135 141 145 151 162 180 181 180 197 216 191 234 222 224 201 190 172 166 172 330 298
133 160 210 159 123 192 211 234 265 177 213 190 173 167 166 171 175 159 151 163 176 163 167 179 136 116 19 152 161 176 183 190 204 208 226 239 265 186 219 228 272 131 69 251 249
159 144 258 153 162 170 207 204 273 178 237 256 197 162 182 164 138 144 156 148 173 169 181 176 130 124 123 102 100 17 199 196 212 207 222 221 230 162 206 242 213 237 250 256 255